Home   Weather   India   Courtallam   Past weeks
Flag for India

Past Weather in Courtallam, Tamil Nadu, India — Yesterday and Last 2 Weeks

Currently: 82 °F. Fog. (Weather station: Thiruvananthapuram, India). See more current weather

Past Weather in Courtallam — Graph

°F

Courtallam Temperature Yesterday

Maximum temperature yesterday: 88 °F (at 1:30 pm)
Minimum temperature yesterday: 77 °F (at 4:30 am)
Average temperature yesterday: 81 °F

High & Low Weather Summary for the Past Weeks

 TemperatureHumidityPressure
High93 °F (May 11, 1:30 pm)94% (May 11, 5:30 pm)29.86 "Hg (May 11, 5:30 pm)
Low75 °F (May 20, 8:00 am)59% (May 11, 1:30 pm)29.56 "Hg (May 23, 3:30 pm)
Average82 °F81%29.72 "Hg
* Reported May 11 1:30 pm — May 26 1:30 pm, Courtallam. Weather by CustomWeather, © 2024

Note: Actual official high and low records may vary slightly from our data, if they occured in-between our weather recording intervals... More about our weather records

Courtallam Weather History for the Previous 24 Hours

Scroll right to see more
 ConditionsComfort  
Time TempWeatherWind HumidityBarometerVisibility
1:30 pm
Sun, May 26
82 °FFog.7 mph79%29.71 "Hg1 mi
1:00 pm81 °FDrizzle. Fog.6 mph84%29.71 "Hg1 mi
12:30 pm79 °FLight rain. Fog.7 mph84%29.74 "Hg1 mi
12:00 pm79 °FRain. Fog.7 mph84%29.77 "Hg1 mi
11:30 am79 °FLight rain. Fog.3 mph84%29.80 "Hg1 mi
11:00 am79 °FLight rain. Fog.5 mph84%29.80 "Hg1 mi
10:30 am81 °FLight rain. Fog.10 mph79%29.80 "Hg1 mi
10:00 am81 °FLight rain. Fog.7 mph79%29.77 "Hg1 mi
9:30 am79 °FFog.3 mph84%29.77 "Hg1 mi
9:00 am77 °FDrizzle. Fog.No wind83%29.77 "Hg1 mi
8:30 am77 °FRain. Fog.2 mph83%29.77 "Hg1 mi
8:00 am77 °FLight rain. Fog.3 mph83%29.74 "Hg1 mi
7:00 am75 °FLight rain. More clouds than sun.3 mph89%29.74 "Hg1 mi
6:30 am75 °FHeavy rain. Mostly cloudy.17 mph89%29.74 "Hg1 mi
6:00 am79 °FFog.2 mph84%29.71 "Hg2 mi
5:30 am79 °FFog.3 mph84%29.68 "Hg2 mi
5:00 am79 °FFog.No wind84%29.68 "Hg2 mi
4:30 am79 °FFog.No wind84%29.71 "Hg2 mi
4:00 am79 °FFog.1 mph84%29.71 "Hg2 mi
3:30 am79 °FFog.No wind84%29.71 "Hg2 mi
3:00 am79 °FFog.1 mph79%29.71 "Hg2 mi
2:30 am79 °FFog.No wind79%29.71 "Hg2 mi
2:00 am79 °FFog.2 mph84%29.71 "Hg2 mi
1:30 am79 °FFog.3 mph79%29.71 "Hg2 mi
12:30 am77 °FPartly cloudy.5 mph83%29.74 "Hg1 mi
12:00 am77 °FPartly cloudy.6 mph83%29.74 "Hg1 mi
11:30 pm
Sat, May 25
77 °FFog.5 mph83%29.77 "Hg1 mi
11:00 pm77 °FFog.5 mph83%29.77 "Hg1 mi
10:30 pm77 °FDrizzle. Mostly cloudy.5 mph83%29.77 "Hg1 mi
10:00 pm79 °FLight rain. Partly cloudy.18 mph79%29.77 "Hg1 mi
9:30 pm82 °FFog.2 mph84%29.74 "Hg2 mi
9:00 pm82 °FFog.1 mph79%29.71 "Hg2 mi
8:30 pm84 °FFog.5 mph74%29.71 "Hg2 mi
8:00 pm84 °FFog.8 mph79%29.71 "Hg2 mi
7:30 pm84 °FFog.9 mph74%29.68 "Hg2 mi
7:00 pm84 °FFog.9 mph79%29.68 "Hg2 mi
6:30 pm84 °FFog.9 mph74%29.68 "Hg2 mi
6:00 pm84 °FDrizzle. Broken clouds.6 mph79%29.65 "Hg2 mi
5:30 pm84 °FFog.6 mph79%29.68 "Hg2 mi
5:00 pm84 °FFog.8 mph79%29.68 "Hg2 mi
4:30 pm84 °FFog.9 mph79%29.68 "Hg2 mi
4:00 pm84 °FDrizzle. Broken clouds.10 mph74%29.68 "Hg2 mi
3:30 pm84 °FBroken clouds.10 mph74%29.68 "Hg3 mi
3:00 pm86 °FBroken clouds.12 mph70%29.65 "Hg3 mi
Weather by CustomWeather, © 2024

See weather overview